Karup, Denmark

1:08 PM CEST on May 29, 2017 (GMT +0200)
Karup Air Base

Weather History for EKKA - November, 2012

Change the Weather History Date:

Saturday, November 10, 2012

  Actual Average Record
Temperature  
Mean Temperature 44 °F -  
Max Temperature 47 °F 43 °F 59 °F (2015)
Min Temperature 42 °F 33 °F 24 °F (2016)
Degree Days  
Heating Degree Days 20    
Moisture  
Dew Point 43 °F    
Average Humidity 90    
Maximum Humidity 100    
Minimum Humidity 76    
Precipitation  
Precipitation 0.01 in - - ()
Sea Level Pressure  
Sea Level Pressure 29.55 in    
Wind  
Wind Speed 8 mph ()    
Max Wind Speed 13 mph    
Max Gust Speed -    
Visibility 3.5 miles    
Events Rain    
Averages and records for this station are not official NWS values.
T = Trace of Precipitation, MM = Missing Value Source: Averaged Metar Reports

Daily Weather History Graph

Daily Weather History Graph

Search for Another Location

Airport or City:

Trip Planner

Search our weather history database for the weather conditions in past years. The results will help you decide how hot, cold, wet, or windy it might be!

Date:

Astronomy

Nov. 10, 2012 Rise Set
Actual Time 7:51 AM CET 4:22 PM CET
Civil Twilight 7:09 AM CET 5:04 PM CET
Nautical Twilight 6:24 AM CET 5:49 PM CET
Astronomical Twilight 5:40 AM CET 6:33 PM CET
Moon 2:56 AM CET (11/10) 2:35 PM CET (11/10)
Length of Visible Light 9h 54m
Length of Day
8h 31m
Waning Crescent, 16% of the Moon is Illuminated
Nov 10
Waning Crescent
Nov 13
New
Nov 20
First Quarter
Nov 28
Full
Dec 6
Last Quarter

Hourly Weather History & Observations

Time (CET) Temp. Windchill Dew Point Humidity Pressure Visibility Wind Dir Wind Speed Gust Speed Precip Events Conditions
12:20 AM 46.4 °F 41.1 °F 42.8 °F 87% 29.68 in 3.7 mi South 11.5 mph - N/A   Mostly Cloudy
12:50 AM 46.4 °F 41.1 °F 42.8 °F 87% 29.68 in 3.7 mi South 11.5 mph - N/A   Mostly Cloudy
1:00 AM 47 °F - 42 °F 77% 29.70 in 4 mi South 12.7 mph - -   Mist
1:20 AM 46.4 °F 41.1 °F 42.8 °F 87% 29.68 in 3.7 mi South 11.5 mph - N/A   Mostly Cloudy
1:50 AM 46.4 °F 41.5 °F 42.8 °F 87% 29.68 in 3.7 mi South 10.4 mph - N/A   Mostly Cloudy
2:20 AM 46.4 °F 41.5 °F 41.0 °F 81% 29.65 in 3.7 mi South 10.4 mph - N/A   Mostly Cloudy
2:51 AM 46.4 °F 41.9 °F 41.0 °F 81% 29.65 in 3.7 mi South 9.2 mph - N/A   Mostly Cloudy
3:21 AM 46.4 °F 42.4 °F 41.0 °F 81% 29.65 in 3.7 mi SSE 8.1 mph - N/A   Mostly Cloudy
3:50 AM 46.4 °F 41.9 °F 41.0 °F 81% 29.65 in 3.7 mi SSE 9.2 mph - N/A   Mostly Cloudy
4:00 AM 46 °F - 41 °F 76% 29.66 in 4 mi SSE 8.1 mph - -   Mist
4:20 AM 46.4 °F 41.9 °F 41.0 °F 81% 29.62 in 3.7 mi SSE 9.2 mph - N/A   Mostly Cloudy
4:50 AM 46.4 °F 41.9 °F 41.0 °F 81% 29.62 in 3.7 mi SSE 9.2 mph - N/A   Mostly Cloudy
5:20 AM 44.6 °F 39.7 °F 41.0 °F 87% 29.62 in 4.3 mi SSE 9.2 mph - N/A   Unknown
5:50 AM 44.6 °F 40.2 °F 41.0 °F 87% 29.59 in 4.3 mi SSE 8.1 mph - N/A   Unknown
6:20 AM 42.8 °F 38.0 °F 41.0 °F 93% 29.59 in 4.3 mi SSE 8.1 mph - N/A   Unknown
6:51 AM 42.8 °F 38.6 °F 39.2 °F 87% 29.56 in 4.3 mi SSE 6.9 mph - N/A   Unknown
7:00 AM 43 °F - 40 °F 85% 29.60 in 4 mi SSE 6.9 mph - -   Mist
7:20 AM 42.8 °F 38.0 °F 41.0 °F 93% 29.56 in 4.3 mi SE 8.1 mph - N/A   Unknown
7:50 AM 42.8 °F 38.6 °F 41.0 °F 93% 29.56 in 5.0 mi SSE 6.9 mph - N/A   Unknown
8:20 AM 44.6 °F 40.2 °F 41.0 °F 87% 29.56 in 5.6 mi SSE 8.1 mph - N/A   Unknown
8:50 AM 44.6 °F 40.2 °F 41.0 °F 87% 29.56 in 5.6 mi SSE 8.1 mph - N/A   Unknown
9:20 AM 44.6 °F 39.2 °F 41.0 °F 87% 29.56 in - SSE 10.4 mph - N/A   Clear
9:50 AM 44.6 °F 39.2 °F 41.0 °F 87% 29.56 in 5.6 mi South 10.4 mph - N/A   Mostly Cloudy
10:00 AM 45 °F - 42 °F 83% 29.57 in 6 mi South 11.5 mph - -   Overcast
10:20 AM 46.4 °F 41.9 °F 41.0 °F 81% 29.56 in 6.2 mi South 9.2 mph - N/A   Mostly Cloudy
10:50 AM 46.4 °F 41.5 °F 42.8 °F 87% 29.56 in 6.2 mi South 10.4 mph - N/A   Mostly Cloudy
11:20 AM 46.4 °F 41.9 °F 42.8 °F 87% 29.56 in 6.2 mi South 9.2 mph - N/A   Mostly Cloudy
11:50 AM 46.4 °F 42.4 °F 42.8 °F 87% 29.53 in 6.2 mi South 8.1 mph - N/A   Mostly Cloudy
12:20 PM 46.4 °F 41.9 °F 42.8 °F 87% 29.53 in 6.2 mi South 9.2 mph - N/A   Mostly Cloudy
12:50 PM 46.4 °F 42.9 °F 42.8 °F 87% 29.53 in 5.0 mi South 6.9 mph - N/A   Mostly Cloudy
1:00 PM 46 °F - 43 °F 86% 29.54 in 4 mi SSE 6.9 mph - -   Mist
1:20 PM 46.4 °F 41.9 °F 42.8 °F 87% 29.53 in 3.1 mi SSE 9.2 mph - N/A   Mostly Cloudy
1:50 PM 46.4 °F 42.9 °F 42.8 °F 87% 29.53 in 3.7 mi SSE 6.9 mph - N/A   Mostly Cloudy
2:20 PM 46.4 °F 41.9 °F 42.8 °F 87% 29.53 in 3.1 mi SSE 9.2 mph - N/A   Mostly Cloudy
2:50 PM 46.4 °F 43.5 °F 44.6 °F 93% 29.50 in 2.2 mi South 5.8 mph - N/A   Light Drizzle
3:20 PM 46.4 °F 42.9 °F 44.6 °F 93% 29.50 in 1.6 mi SSE 6.9 mph - N/A Rain Light Rain
3:50 PM 46.4 °F 42.9 °F 44.6 °F 93% 29.50 in 1.9 mi SSE 6.9 mph - N/A   Light Drizzle
4:20 PM 46.4 °F 42.9 °F 44.6 °F 93% 29.50 in 2.2 mi SSE 6.9 mph - N/A   Mostly Cloudy
4:50 PM 46.4 °F 42.9 °F 44.6 °F 93% 29.50 in - SSE 6.9 mph - N/A   Light Drizzle
5:20 PM 46.4 °F 42.9 °F 44.6 °F 93% 29.50 in 1.9 mi SSE 6.9 mph - N/A Rain Light Drizzle
5:50 PM 46.4 °F 43.5 °F 44.6 °F 93% 29.50 in 1.9 mi SSE 5.8 mph - N/A   Mostly Cloudy
6:20 PM 46.4 °F 43.5 °F 46.4 °F 100% 29.50 in 1.9 mi SSE 5.8 mph - N/A   Mostly Cloudy
6:50 PM 46.4 °F 42.9 °F 46.4 °F 100% 29.50 in 1.9 mi SSE 6.9 mph - N/A   Light Drizzle
7:00 PM 46 °F - 46 °F 98% 29.51 in 2 mi SSE 8.1 mph - - Rain Light Drizzle
7:20 PM 46.4 °F 42.9 °F 46.4 °F 100% 29.50 in 1.9 mi SSE 6.9 mph - N/A   Light Drizzle
7:50 PM 46.4 °F 42.4 °F 46.4 °F 100% 29.47 in 1.6 mi SSE 8.1 mph - N/A Rain Rain
8:20 PM 46.4 °F 42.4 °F 46.4 °F 100% 29.47 in 1.6 mi SSE 8.1 mph - N/A   Light Drizzle
8:50 PM 46.4 °F 41.9 °F 46.4 °F 100% 29.47 in 2.2 mi SSE 9.2 mph - N/A   Mostly Cloudy
9:20 PM 46.4 °F 42.4 °F 46.4 °F 100% 29.47 in 1.9 mi SSE 8.1 mph - N/A   Mostly Cloudy
9:50 PM 46.4 °F 42.9 °F 46.4 °F 100% 29.50 in 1.9 mi SSE 6.9 mph - N/A   Mostly Cloudy
10:00 PM 47 °F - 46 °F 97% 29.50 in 2 mi SSE 6.9 mph - -   Mist
10:20 PM 46.4 °F 43.5 °F 46.4 °F 100% 29.47 in 1.9 mi SSE 5.8 mph - N/A   Mostly Cloudy
10:50 PM 46.4 °F 42.9 °F 46.4 °F 100% 29.47 in 1.9 mi SSE 6.9 mph - N/A   Mostly Cloudy
11:20 PM 46.4 °F 42.9 °F 46.4 °F 100% 29.44 in 2.2 mi SSE 6.9 mph - N/A   Mostly Cloudy
11:50 PM 46.4 °F 42.9 °F 46.4 °F 100% 29.47 in 2.5 mi SSE 6.9 mph - N/A   Mostly Cloudy